GFSGBSN_2pvu_pres_084.txt.gz
Presure
109 114 115 117 144 130 132 150 158 133 153 118 134 132 143 148 212 280 236 423 321 358 262 416 423 414 410 428 389 360 366 329 307 296 288 289 293 292 310 288 291 284 280 237 219 246 212
99 102 120 103 119 142 150 139 147 161 157 118 145 132 114 198 162 224 134 355 417 176 145 425 437 439 443 455 499 387 356 366 324 293 159 221 287 283 286 287 299 280 275 278 228 316 240
103 110 113 139 132 144 128 119 131 143 162 100 150 158 121 126 135 159 200 163 343 139 430 131 429 437 491 484 498 511 362 343 327 320 286 289 289 284 286 278 281 287 316 333 344 343 253
113 123 150 128 134 143 128 150 134 124 130 170 113 113 126 125 124 227 153 302 298 362 448 419 427 438 478 485 493 535 428 352 339 310 309 286 283 283 281 305 279 281 313 331 96 327 313
119 129 132 126 128 122 142 131 152 142 149 178 120 114 138 135 139 130 168 252 349 125 448 340 440 464 474 488 479 489 472 356 342 322 314 309 285 278 314 281 286 310 303 327 318 318 347
122 142 128 127 110 124 140 146 133 141 153 144 146 126 160 132 133 168 179 142 152 450 430 347 432 430 470 476 462 462 463 467 345 342 306 328 304 294 287 281 289 318 289 326 330 143 303
138 134 126 143 111 127 136 171 123 148 128 134 136 115 115 187 143 260 245 184 312 255 367 346 448 438 434 482 455 462 469 476 348 359 347 304 308 306 286 279 294 256 293 303 317 321 296
145 123 129 143 122 128 137 103 119 133 146 137 152 140 125 210 134 148 170 124 317 271 365 383 374 449 448 469 454 443 469 455 365 340 330 319 288 303 293 241 277 305 273 234 210 312 291
141 148 144 142 125 128 136 131 129 121 143 145 155 169 141 157 238 189 159 269 342 287 333 362 368 358 500 492 461 438 458 450 440 332 341 337 289 302 196 288 291 278 103 279 277 187 313
164 149 157 123 137 141 117 129 162 148 135 118 182 153 214 233 134 270 230 350 285 293 317 367 346 353 348 378 468 459 446 463 459 335 352 318 307 288 293 294 288 299 282 272 291 314 309
157 136 123 131 126 135 126 133 136 134 163 184 165 187 168 160 171 127 318 137 327 255 306 319 343 341 333 354 364 445 449 460 479 374 321 300 304 294 291 275 280 267 279 272 157 294 288
158 136 133 120 132 139 141 115 125 141 121 155 170 128 146 220 155 266 132 370 108 299 346 326 325 332 332 324 344 357 450 478 479 467 332 341 303 296 290 287 280 266 275 279 288 271 287
151 139 127 142 136 138 131 122 136 150 150 152 162 140 207 130 257 248 201 171 204 331 309 311 323 323 319 336 314 337 339 358 488 490 343 325 317 295 286 289 280 289 269 275 277 269 284
122 129 146 137 134 129 118 122 142 146 137 165 137 182 141 125 244 340 358 116 212 335 342 310 330 323 335 311 313 321 334 345 355 504 486 340 309 318 297 291 290 277 267 280 279 286 265
159 132 144 125 133 144 127 138 142 134 163 141 134 220 119 124 264 158 340 134 357 340 354 313 326 324 303 305 295 301 307 314 334 355 499 367 316 302 293 296 293 276 275 285 273 279 284
135 122 142 126 134 129 135 146 145 142 153 180 165 129 139 161 140 216 160 185 252 311 328 315 328 322 320 303 297 297 301 301 313 333 355 554 311 298 287 280 293 294 282 262 288 283 272
128 140 133 127 126 128 122 114 142 145 130 123 134 121 264 127 175 240 129 178 98 317 233 310 336 309 316 313 306 294 292 294 298 313 333 384 412 309 293 279 282 286 274 285 289 283 279
141 127 150 118 120 125 134 133 136 122 208 144 130 255 106 127 227 299 148 131 162 196 233 312 321 315 285 295 296 290 289 299 293 300 319 335 389 313 285 278 279 274 271 278 277 282 272
124 140 140 118 123 143 129 118 159 134 128 124 134 136 170 118 172 263 308 130 186 284 222 320 308 310 287 288 288 292 290 296 290 317 314 322 343 336 297 281 281 274 277 272 285 285 288
134 138 126 122 111 98 93 155 134 172 126 122 146 136 232 237 364 240 371 364 382 348 301 291 308 282 300 282 290 276 287 287 282 295 320 318 312 348 288 288 287 275 275 274 282 257 297
126 125 124 119 119 120 113 96 149 103 140 123 115 196 147 223 276 247 205 331 363 365 285 294 284 297 293 286 283 277 291 280 281 280 295 301 321 315 294 287 286 293 291 285 297 285 272
135 126 109 127 93 117 164 190 187 117 153 136 121 181 185 267 263 113 382 169 169 373 316 295 294 285 280 291 284 282 287 271 268 260 279 279 285 297 318 326 293 283 276 275 277 277 262
129 93 132 95 112 132 137 105 103 125 126 149 144 269 132 134 162 141 370 146 320 165 323 299 292 285 291 286 289 277 268 264 263 261 253 266 276 267 264 266 282 296 304 307 296 283 275
128 124 149 94 140 124 132 135 167 127 127 171 205 229 171 234 138 215 147 267 368 290 299 308 292 284 280 288 287 277 273 266 268 265 266 263 263 276 266 272 268 264 274 261 249 258 255
127 127 98 122 145 141 139 135 156 176 164 132 129 124 254 235 239 261 149 132 184 372 340 314 295 292 284 290 280 294 271 267 260 263 260 265 253 246 253 255 257 262 256 259 259 259 264
143 116 138 140 125 134 220 179 187 152 153 154 199 151 125 150 161 118 126 179 150 345 365 315 302 295 287 278 293 282 286 272 264 263 259 255 252 247 244 243 241 244 243 248 250 255 250
117 131 135 148 112 115 231 170 188 138 239 198 172 239 178 119 119 127 429 154 142 168 361 330 300 291 278 277 273 299 283 286 275 263 262 257 264 263 251 249 246 248 242 241 246 245 247
117 162 157 118 201 185 118 214 176 199 101 187 251 277 150 191 253 252 338 126 146 298 347 365 317 293 286 279 278 291 298 290 285 280 273 264 260 261 259 258 256 252 249 253 254 253 245
125 152 133 118 143 199 198 118 177 199 116 120 109 130 122 145 228 255 155 125 180 265 342 342 332 304 281 282 271 273 283 291 277 297 297 292 269 263 275 267 264 270 282 268 270 274 263

GFSGBSN_2pvu_pres_090.txt.gz
Presure
129 120 120 118 105 123 166 176 168 148 153 110 156 137 127 192 121 190 140 276 122 124 301 143 241 128 388 458 415 438 422 383 366 350 333 324 314 305 306 312 300 300 279 261 193 184 190
121 119 127 99 109 120 143 178 178 110 144 169 131 177 155 125 120 119 174 139 125 131 373 301 255 408 393 476 469 449 430 412 376 361 345 319 321 300 300 310 300 295 276 266 179 192 172
120 132 149 138 150 157 163 157 144 157 143 170 169 145 184 201 182 182 123 253 247 125 203 124 152 356 385 431 465 456 454 433 397 367 351 349 312 311 296 291 288 296 284 277 259 206 197
137 123 138 130 160 158 160 130 156 135 158 171 128 125 125 120 156 140 168 141 238 119 170 324 188 156 377 426 475 469 472 488 421 374 359 345 331 308 300 285 290 291 299 286 267 230 199
150 130 143 153 144 162 162 161 143 127 130 136 101 155 118 124 157 177 131 114 194 104 119 187 256 263 377 453 489 492 496 500 456 403 361 345 337 321 308 287 288 303 297 286 274 265 214
138 120 140 153 143 149 113 142 126 146 163 111 178 135 178 134 146 140 140 134 157 175 155 115 185 312 364 417 504 485 470 468 500 420 361 352 337 327 324 297 283 298 287 300 276 270 258
157 170 140 148 142 132 128 137 139 150 127 166 136 155 111 165 165 136 141 199 215 322 195 346 279 178 326 373 505 473 433 419 471 449 375 352 342 328 334 289 296 276 285 282 278 268 267
173 141 138 151 135 122 126 139 133 139 146 137 157 146 116 134 215 173 112 161 265 306 312 343 334 185 321 360 380 477 459 432 461 444 395 351 342 328 319 299 289 279 270 275 278 282 266
98 128 136 133 139 141 127 133 151 153 139 131 165 127 135 141 146 148 156 182 128 261 298 347 326 333 316 333 359 391 481 462 473 420 402 359 346 333 314 305 292 288 273 271 275 276 285
136 160 133 131 144 132 143 146 153 149 139 145 127 117 135 152 128 201 184 203 268 280 357 336 323 320 316 340 338 354 487 479 473 406 399 361 347 335 320 343 318 287 271 276 274 283 278
99 131 166 147 142 129 133 133 148 128 119 132 162 147 123 158 157 224 163 144 117 204 383 321 320 314 326 337 340 346 357 481 473 409 395 360 344 346 325 309 303 304 274 271 265 268 281
125 134 141 134 127 137 118 133 149 142 127 142 159 116 127 131 149 175 193 203 203 397 163 158 163 317 325 325 336 335 344 398 494 481 398 353 343 341 311 298 295 313 318 291 264 264 266
128 131 141 125 120 127 140 142 147 139 150 153 129 122 130 119 109 114 169 176 167 157 363 162 269 323 308 315 333 324 335 346 505 489 397 347 338 338 310 305 309 303 299 269 269 265 261
128 132 122 139 138 131 133 126 144 140 134 144 163 113 194 102 107 161 168 204 207 140 137 192 229 176 317 307 333 315 328 338 350 503 445 348 331 343 298 313 307 312 299 301 284 249 256
120 131 126 139 128 135 138 124 152 152 126 111 118 109 122 133 115 122 179 152 217 347 142 167 148 307 321 303 317 321 323 333 341 377 478 358 324 315 299 299 295 302 295 311 288 286 257
124 122 116 128 132 125 125 128 160 151 131 121 150 119 102 101 184 154 113 171 258 138 210 131 159 257 301 301 314 319 316 341 331 361 491 373 320 324 291 291 298 288 290 305 319 291 294
112 112 130 118 140 150 139 127 161 152 119 138 100 120 123 104 149 174 167 177 273 151 131 366 269 143 301 291 314 307 308 340 326 349 530 383 324 319 309 290 294 298 303 295 284 280 286
119 123 120 132 120 130 145 111 154 158 128 138 115 128 163 97 101 165 256 267 135 154 140 362 317 144 298 292 300 306 301 326 322 336 366 447 325 305 290 315 292 291 296 283 289 275 278
125 128 139 132 136 132 143 139 135 107 134 148 115 155 140 108 101 202 205 200 173 179 371 379 323 135 298 292 307 301 294 301 326 324 351 471 327 304 307 309 293 286 290 284 268 277 266
127 142 133 138 130 146 176 164 120 139 137 117 106 104 149 97 150 216 180 195 210 283 376 390 331 134 302 294 292 295 293 296 312 321 324 353 370 314 305 285 300 288 287 293 287 260 276
202 190 130 137 153 153 96 149 119 121 143 113 113 117 112 102 158 175 181 144 166 324 382 373 144 134 298 292 288 313 292 292 295 315 319 332 414 309 302 296 301 280 275 274 269 268 261
226 132 137 140 148 214 157 140 145 130 111 146 105 155 151 115 142 205 166 248 216 181 390 172 142 136 305 293 289 301 274 290 286 294 316 318 375 311 303 284 280 287 304 288 272 270 290
120 136 132 145 213 145 149 137 137 128 143 144 142 100 133 162 224 164 193 167 141 280 400 365 373 126 308 296 289 293 283 284 286 287 298 327 349 310 294 302 306 292 286 290 284 279 281
122 137 178 145 216 163 137 147 132 126 125 122 128 114 195 199 150 175 181 191 252 187 410 368 176 175 293 298 290 285 279 274 267 281 286 303 329 311 281 271 268 283 277 272 272 273 274
114 139 143 198 154 149 145 116 118 129 130 95 127 107 147 192 223 178 154 207 216 224 395 182 352 343 304 307 293 283 284 271 270 265 276 281 296 313 287 281 281 274 265 268 267 271 269
134 150 148 203 151 141 136 115 145 143 109 135 98 99 104 238 141 230 161 247 234 206 314 137 223 361 318 300 295 288 282 277 273 268 272 271 273 288 300 293 283 267 263 263 262 270 271
157 138 197 141 150 140 144 130 134 125 129 120 141 91 222 101 226 186 153 231 245 218 290 222 119 377 334 302 297 303 287 281 279 276 264 266 263 246 264 272 278 284 284 285 284 284 285
163 199 182 145 150 142 136 139 104 109 112 154 93 134 202 181 202 164 148 140 173 212 246 289 385 382 348 323 302 289 308 292 279 274 265 265 259 263 262 268 262 263 252 263 257 256 263
182 156 144 157 150 151 128 149 128 112 125 141 187 201 200 251 220 139 165 159 248 184 256 233 259 281 365 338 310 294 280 284 294 279 284 271 269 262 268 260 257 256 254 254 251 252 254

GFSGBSN_2pvu_pres_093.txt.gz
Presure
117 135 100 121 127 122 141 149 163 138 153 130 157 119 179 157 121 148 125 120 166 141 190 248 292 369 248 204 171 449 349 432 400 372 356 358 342 330 327 317 302 294 285 233 180 181 214
129 129 119 152 127 127 134 141 156 114 148 131 144 164 176 124 127 151 132 164 183 142 150 135 351 279 360 177 375 473 471 453 418 387 358 352 357 335 328 307 320 300 292 196 222 186 183
162 118 116 140 118 131 126 144 137 138 138 130 148 180 139 148 146 151 112 127 119 103 141 151 143 114 147 367 186 501 470 453 440 398 370 352 347 341 330 310 309 312 295 285 204 185 201
141 126 130 120 122 141 122 140 142 136 138 130 153 159 131 131 141 184 159 145 104 169 178 337 364 168 347 355 309 412 489 467 331 432 381 360 345 338 320 327 317 315 300 293 283 206 194
147 147 109 146 136 138 121 107 135 115 135 160 137 132 117 107 99 152 107 101 202 173 236 252 132 355 147 349 262 338 517 497 477 460 402 376 350 338 327 321 318 316 306 304 281 276 249
151 115 138 116 134 139 130 146 133 105 146 147 153 133 128 131 145 143 173 163 191 245 205 373 189 294 355 344 227 379 470 466 491 503 449 378 358 338 327 322 312 306 302 303 292 128 276
170 145 134 133 158 139 134 139 148 133 136 135 160 146 123 124 124 150 144 112 182 153 181 185 360 110 343 345 353 367 391 438 450 500 450 390 363 345 332 324 306 311 292 297 288 278 281
116 127 134 122 147 172 145 144 134 126 141 152 136 158 147 124 150 124 123 136 165 148 334 209 295 345 178 343 343 351 367 449 442 477 445 392 361 351 340 331 308 299 294 274 285 288 281
149 184 130 131 127 133 129 134 130 125 142 109 141 156 117 126 118 200 146 170 110 158 331 383 348 212 338 335 337 344 357 423 446 443 437 389 362 355 341 329 337 297 293 269 303 283 275
127 155 132 135 124 129 146 136 142 133 141 126 147 181 124 112 175 116 121 110 191 138 158 152 163 328 328 333 335 333 355 374 480 455 482 388 368 357 342 325 315 300 289 280 266 282 297
125 147 140 143 127 125 140 143 141 123 142 130 161 162 127 190 144 183 133 108 114 115 135 136 141 328 331 206 325 329 343 363 480 480 443 407 368 361 335 317 305 381 293 294 267 279 274
133 129 137 136 108 139 129 124 147 132 135 125 203 111 169 110 123 138 205 174 177 239 141 138 249 330 156 176 312 332 342 356 438 484 434 419 374 358 331 308 303 307 355 305 270 276 276
131 149 137 119 140 170 128 134 139 132 163 142 129 148 119 127 168 130 117 105 109 131 176 123 349 342 154 187 329 330 343 348 365 493 419 417 379 350 328 308 296 305 305 319 279 277 257
131 169 129 147 118 124 117 133 132 134 151 154 143 123 132 128 146 165 171 163 167 169 140 136 358 342 151 314 303 320 344 337 357 470 419 406 373 344 324 299 284 310 347 324 279 273 255
137 148 167 125 117 126 118 133 138 119 148 222 134 144 108 108 138 123 111 103 123 151 242 362 354 140 196 314 298 317 336 331 350 375 440 419 352 338 316 298 293 294 294 356 282 268 259
134 133 124 127 116 127 128 124 142 145 146 134 119 141 140 123 155 169 160 97 111 216 201 379 356 271 321 312 308 313 317 332 344 366 515 410 345 333 309 315 296 304 330 314 328 312 260
232 133 133 126 119 124 131 123 138 215 144 212 154 129 113 125 106 124 158 195 196 238 220 327 355 141 151 309 303 306 312 330 338 359 513 369 346 327 311 301 291 297 306 305 294 287 286
135 134 135 129 127 146 134 145 137 164 202 164 142 128 99 166 102 109 116 141 236 283 163 386 359 215 280 306 301 298 304 328 329 354 517 360 337 319 310 303 298 323 303 298 310 276 269
222 134 130 118 126 136 143 141 136 160 212 132 135 142 142 114 116 156 130 246 176 240 200 391 376 133 140 312 300 309 301 318 326 338 387 354 330 310 289 303 298 301 306 309 293 287 277
222 164 159 124 123 199 161 135 144 225 202 141 137 135 153 103 99 97 174 132 187 194 225 232 334 333 319 306 302 297 301 302 324 326 350 336 320 308 311 301 303 298 303 278 272 277 291
212 130 130 120 135 133 137 141 227 177 173 137 90 118 107 128 158 193 130 141 153 223 154 410 380 311 326 307 301 310 302 286 310 323 331 394 319 309 292 307 290 280 279 271 288 265 254
127 118 123 116 111 133 132 227 139 207 152 131 133 101 138 154 114 170 172 148 188 188 176 197 234 260 325 310 302 305 296 304 300 315 326 352 339 307 292 309 283 298 306 270 276 256 261
161 227 157 128 162 137 134 211 142 153 149 135 146 111 109 163 127 231 191 170 212 195 246 172 368 122 269 299 302 293 284 298 283 305 325 347 386 315 302 298 293 296 290 277 267 258 253
175 225 240 135 231 123 141 139 106 165 161 135 119 115 137 138 91 150 161 235 194 208 219 167 406 398 241 315 306 281 290 283 276 288 317 339 386 323 299 302 284 277 277 281 272 266 273
143 131 228 223 219 209 162 99 181 154 146 127 96 109 113 113 107 155 149 147 203 209 185 242 200 359 359 321 306 288 288 276 286 275 290 327 331 312 301 294 282 288 297 292 299 277 264
128 129 219 143 149 132 205 143 196 119 138 125 92 124 138 98 168 223 132 215 204 179 180 263 207 367 372 333 308 297 299 278 280 278 264 302 321 312 307 310 295 288 298 284 282 287 283
214 186 182 144 218 167 194 190 158 141 146 132 135 146 109 143 141 188 216 180 116 192 163 179 250 257 259 335 324 308 303 296 285 280 273 271 280 310 298 291 287 278 272 271 275 261 271
210 187 209 139 200 135 182 183 156 108 117 134 146 89 136 164 186 172 174 146 207 205 201 104 197 277 330 351 337 313 297 291 291 274 276 277 275 277 285 302 299 293 286 279 275 273 278
209 205 202 140 187 138 187 145 155 121 135 133 149 136 137 135 134 213 135 227 172 226 173 240 274 261 301 385 360 327 309 294 280 291 286 275 266 275 269 256 274 271 283 282 279 268 275

GFSGBSN_2pvu_pres_099.txt.gz
Presure
122 123 133 194 121 129 121 135 125 131 151 123 142 136 140 129 156 141 161 168 201 123 123 128 146 119 125 383 355 319 339 352 126 177 157 424 368 351 351 344 328 192 236 291 291 288 276
130 128 126 120 120 125 177 122 132 134 144 137 143 151 147 143 160 178 183 229 195 140 106 146 146 127 132 131 146 302 344 264 281 394 375 312 380 322 346 344 327 321 302 301 242 76 276
155 120 125 124 119 145 124 125 104 121 136 133 146 141 111 153 154 125 175 100 151 143 133 129 125 127 148 126 220 339 348 110 267 399 472 245 391 359 354 345 331 335 302 301 300 286 271
113 126 120 122 121 112 117 124 117 119 133 135 128 145 139 154 144 176 162 196 150 132 131 117 133 129 153 196 187 341 309 333 369 501 477 230 401 359 350 352 327 331 309 305 297 293 273
114 173 120 122 125 124 122 130 126 143 135 137 119 134 146 139 152 89 193 192 140 146 167 176 126 125 143 276 347 129 136 285 379 483 487 316 405 370 350 351 334 330 333 321 300 219 281
116 113 138 117 120 129 117 115 124 139 140 135 143 137 136 148 152 139 179 156 130 132 115 124 115 134 133 361 347 125 126 183 367 458 489 457 407 377 347 346 339 341 331 326 307 299 286
125 117 118 120 114 114 141 124 126 140 165 143 137 147 137 155 130 158 163 176 132 112 99 130 115 363 380 126 343 198 134 316 169 453 448 456 420 389 354 344 344 339 335 311 318 295 287
134 159 117 118 123 119 112 122 127 131 137 139 136 110 145 131 150 167 172 216 104 144 202 121 172 187 217 340 135 297 330 325 192 450 446 515 432 395 364 343 340 337 333 323 322 298 291
182 126 125 123 133 121 119 195 182 131 127 139 136 160 166 144 162 156 182 142 135 147 117 124 165 125 373 353 329 331 326 179 365 385 455 465 447 396 371 346 341 341 328 334 319 309 293
120 137 141 126 134 126 181 131 126 134 136 145 142 144 136 149 149 200 155 133 111 123 105 177 122 268 356 335 324 324 320 337 362 379 475 445 450 402 377 350 341 339 330 315 326 307 288
195 183 163 124 193 129 133 122 138 130 136 194 143 130 140 154 204 208 101 139 122 107 103 177 169 215 354 343 327 314 158 340 353 374 475 445 440 409 377 353 348 331 329 323 315 307 297
177 212 151 139 152 127 212 158 114 133 142 190 135 133 207 154 204 133 149 117 149 151 114 110 127 335 354 339 323 134 152 347 353 368 480 471 424 405 371 349 346 327 327 324 309 301 297
211 196 165 157 125 204 167 157 130 134 195 159 137 133 137 173 149 140 121 194 178 130 104 172 140 396 364 332 324 165 316 346 354 357 489 465 414 376 353 344 355 325 321 318 316 302 298
178 132 128 188 236 126 237 193 116 131 186 145 129 172 140 152 122 123 122 109 105 108 118 296 179 326 219 335 245 320 315 338 351 360 498 430 395 362 350 346 349 321 314 309 309 307 299
226 217 158 189 247 124 140 241 133 128 190 136 129 145 134 232 114 146 131 117 118 145 176 132 167 389 360 308 222 322 313 315 352 370 487 405 379 359 350 345 335 339 310 307 306 302 317
155 177 178 192 237 214 240 148 126 132 139 173 111 142 133 172 198 115 126 150 135 105 127 111 223 408 359 336 322 320 319 318 353 474 459 387 373 357 348 344 334 333 312 310 306 302 296
155 182 143 198 238 135 248 159 126 130 134 127 134 144 162 221 133 166 115 94 185 179 187 143 173 265 362 338 133 317 311 318 357 509 439 387 367 356 336 332 322 331 313 302 300 294 289
176 175 134 187 229 131 243 135 234 135 169 109 136 141 136 151 155 165 121 138 120 106 114 192 201 243 351 341 320 320 312 305 359 519 438 389 377 342 313 310 321 323 331 304 301 297 366
188 179 166 164 225 222 243 123 184 155 121 125 127 110 201 146 138 165 135 159 145 127 137 187 240 251 373 263 324 314 308 296 353 409 387 393 369 329 313 312 309 317 311 329 299 291 282
178 173 181 165 223 242 179 191 128 117 242 121 138 158 148 142 137 98 147 98 108 167 144 127 189 243 166 334 326 309 312 295 319 361 366 407 356 330 314 309 308 309 311 294 291 292 300
136 181 181 184 152 152 198 221 133 211 192 222 207 200 202 119 129 102 109 132 93 165 114 224 160 278 380 361 336 313 313 308 297 350 329 337 331 323 317 307 306 309 310 290 284 318 324
180 179 183 189 225 226 216 151 136 242 230 135 220 207 192 144 171 113 160 115 116 142 157 147 226 243 249 222 343 317 314 314 295 325 362 324 322 319 321 307 303 303 286 286 281 299 324
176 181 182 190 221 218 215 208 127 120 192 216 215 156 146 186 117 160 145 124 113 165 167 168 150 205 174 281 177 276 314 309 304 305 347 339 320 318 322 310 305 294 293 278 280 277 291
176 181 182 192 162 212 212 213 127 183 223 209 205 195 142 182 100 143 128 150 121 194 189 162 140 189 249 219 243 325 316 308 311 292 344 399 324 319 314 299 298 293 300 291 278 277 285
176 180 181 193 218 209 210 201 230 227 213 163 199 171 184 173 99 153 91 107 145 94 137 148 228 212 247 200 186 349 273 313 308 307 303 403 336 320 310 324 311 291 274 269 281 269 286
174 179 182 199 217 205 208 131 227 216 211 136 137 138 134 145 157 149 106 139 157 151 138 208 191 189 176 233 186 239 341 314 303 301 298 341 343 320 313 317 314 283 275 275 270 264 279
178 182 184 203 216 212 212 213 222 210 216 161 158 139 178 155 100 125 132 98 136 146 157 193 200 192 177 196 189 249 333 328 312 303 296 292 329 322 310 307 314 309 288 286 292 270 278
180 182 185 212 219 214 211 210 212 208 134 200 161 183 153 158 138 108 95 130 97 134 145 160 184 156 236 228 231 245 228 292 328 304 297 289 286 317 314 308 310 297 283 288 275 268 275
180 181 191 221 209 213 212 209 212 209 200 104 197 180 154 150 155 114 159 123 119 176 146 233 139 170 185 233 249 247 257 285 338 322 299 295 286 280 317 311 308 293 287 288 304 288 286

GFSGBSN_2pvu_pres_102.txt.gz
Presure
120 123 112 128 121 121 132 119 150 128 124 129 130 134 140 133 140 152 149 155 165 194 202 225 141 109 110 132 137 122 153 227 360 290 367 377 317 443 365 360 352 338 341 340 135 187 288
125 117 143 119 124 140 126 125 138 124 121 124 132 124 131 120 179 146 140 94 215 197 187 158 144 136 121 115 131 144 155 181 348 350 372 276 309 201 363 352 362 340 347 314 273 270 258
120 153 125 119 120 126 125 121 118 128 120 124 120 170 179 147 147 127 156 161 154 163 216 155 143 177 129 133 127 137 179 171 337 146 140 218 485 433 211 351 350 340 336 350 324 327 289
122 116 139 172 134 126 122 122 124 125 126 101 133 128 149 147 141 183 142 148 191 210 161 141 132 108 118 141 123 151 127 341 334 138 147 292 475 421 200 183 345 182 336 328 321 270 280
144 138 137 118 117 129 127 123 120 123 117 128 132 142 145 151 149 145 154 137 171 187 157 105 131 139 132 116 143 355 335 333 287 271 140 530 468 417 375 353 342 337 328 333 335 310 290
135 148 155 170 118 122 144 126 122 118 116 129 188 152 192 149 139 165 142 160 224 198 136 153 165 122 109 124 158 255 338 333 331 195 400 168 462 416 253 354 341 334 329 325 354 323 340
180 160 173 123 209 130 120 127 131 144 111 123 138 252 134 145 145 139 144 162 213 183 147 114 162 125 110 112 140 346 332 332 335 361 393 390 470 414 217 356 350 335 331 324 320 326 308
168 161 183 206 176 118 133 137 201 128 122 132 137 233 144 149 147 148 162 162 203 184 129 141 127 117 184 124 119 163 338 327 341 322 388 465 477 417 384 362 340 332 335 323 322 318 309
129 162 162 190 144 196 126 133 129 196 181 118 185 123 143 150 180 152 156 160 213 155 127 109 150 143 309 380 342 333 336 328 231 155 381 466 482 428 388 367 349 335 334 324 343 319 328
195 186 195 147 153 153 190 171 142 128 153 136 156 139 180 131 156 136 157 233 242 184 124 123 114 180 118 315 339 333 329 321 134 351 382 470 457 449 397 362 345 331 330 329 317 322 308
198 208 150 183 180 197 187 137 195 112 127 142 136 141 146 147 143 145 160 126 125 182 141 140 116 265 170 366 341 325 328 323 236 355 374 448 454 459 389 357 352 332 331 328 318 319 308
201 185 158 145 153 172 191 141 223 127 152 168 134 135 149 121 167 143 159 134 127 150 141 136 111 125 365 305 334 328 322 134 342 367 391 463 467 456 383 350 343 339 323 325 320 314 313
176 192 178 126 172 198 184 221 150 146 185 249 137 140 122 220 180 140 150 118 121 124 139 165 137 225 170 280 333 322 257 170 355 374 428 468 446 435 394 343 339 343 322 321 319 314 315
179 176 179 230 175 198 145 228 181 169 190 138 158 140 130 140 145 143 148 205 155 124 114 177 177 193 410 354 326 324 322 312 369 429 491 432 415 394 376 341 337 346 326 319 319 312 329
224 195 192 175 224 205 191 191 112 240 190 235 134 135 119 151 139 144 111 123 136 143 115 168 166 192 408 226 332 326 303 315 372 474 470 422 393 379 365 334 335 369 324 314 321 315 304
181 224 177 181 197 141 205 182 185 240 259 239 140 144 124 188 143 142 176 180 165 128 145 216 128 156 169 351 333 326 317 316 372 482 472 380 372 359 354 333 329 339 332 342 315 321 306
224 187 181 190 201 228 184 184 187 240 182 234 151 117 130 129 135 137 184 171 147 137 106 156 154 250 321 355 266 273 317 283 371 471 414 372 368 342 338 326 327 340 324 309 301 336 322
238 177 192 183 200 195 170 184 188 233 180 227 212 168 169 134 145 173 150 131 127 142 155 114 111 171 187 368 336 319 319 305 368 460 391 380 357 339 348 328 316 335 307 309 305 307 305
196 181 179 173 179 186 170 185 188 247 233 220 125 137 169 222 213 205 160 127 122 140 119 149 132 146 131 380 342 319 318 311 337 399 395 369 343 344 329 335 316 315 328 305 297 298 308
181 221 190 191 208 181 180 197 192 261 249 236 232 184 229 212 132 202 150 142 120 131 108 120 178 194 244 181 356 240 317 313 308 359 407 379 347 333 326 316 321 318 331 303 293 307 295
239 184 197 203 184 185 182 186 192 236 123 233 244 225 160 209 192 173 141 145 128 138 152 138 147 199 164 278 168 293 319 306 304 345 382 357 329 319 313 315 311 307 310 307 296 320 292
183 199 226 189 176 181 192 185 195 224 226 152 141 134 217 205 199 147 154 94 123 165 101 182 121 186 164 248 220 347 257 318 303 296 345 342 310 315 310 304 300 298 292 312 297 306 326
207 192 189 175 183 169 187 185 193 224 212 240 237 134 210 201 184 176 169 125 123 110 135 151 143 168 186 170 153 241 330 318 308 299 366 335 325 315 319 303 292 298 292 290 309 282 296
216 209 181 180 170 184 188 184 196 217 214 141 224 215 205 134 143 167 171 127 133 155 172 166 116 149 229 194 217 258 343 328 320 306 295 357 327 319 320 303 290 290 285 282 289 290 300
214 182 181 181 183 184 187 185 205 217 212 227 218 212 171 182 139 187 169 153 126 166 134 166 130 152 219 230 235 211 261 342 320 321 305 413 337 324 320 312 309 289 275 276 277 276 286
174 168 180 178 184 184 185 184 217 212 211 223 212 185 193 190 139 181 174 149 153 92 144 159 172 174 150 232 194 253 223 298 336 320 311 298 346 326 316 306 312 306 279 277 273 271 279
191 182 179 182 181 185 183 187 216 215 214 219 214 205 194 191 190 148 107 143 112 133 160 138 141 213 140 227 215 202 192 252 284 330 320 306 308 330 316 310 310 285 290 288 286 265 270
173 183 180 178 183 184 183 192 217 217 212 214 212 198 190 189 184 144 119 139 150 142 134 131 150 220 153 225 173 232 243 248 249 349 321 316 304 304 319 310 318 311 297 287 278 268 275
170 189 178 182 184 182 186 202 219 216 214 211 214 195 188 190 181 177 141 125 148 97 201 147 221 229 149 145 222 229 247 238 243 235 261 318 310 298 284 312 307 302 303 278 281 282 275